Wetterdaten: Freitag, 15.07.2011
Datum Zeit Temp. a Sch. Temp. a Son. Temp. a Bod. Feuchte a. Luftdruck Regen Wind Richtung Richtung Sonnenschein Helligkeit Taupunkt Windchill
15.07.2011 00:03 12,2 C 12,6 C 13,3 C 75 % 1016 hPa 0,0 l/m 2,8 m/s (2 Bft) W-NW67.5 285 0 min 0 lux 7,9 C 10,0 C
15.07.2011 00:08 12,2 C 12,7 C 13,2 C 75 % 1016 hPa 0,0 l/m 4,1 m/s (3 Bft) NW22.5 320 0 min 0 lux 7,9 C 7,9 C
15.07.2011 00:13 12,3 C 12,7 C 13,2 C 75 % 1016 hPa 0,0 l/m 5,8 m/s (4 Bft) W-NW67.5 290 0 min 0 lux 8,0 C 6,0 C
15.07.2011 00:18 12,4 C 12,8 C 13,2 C 75 % 1016 hPa 0,0 l/m 4,4 m/s (3 Bft) NW45 305 0 min 0 lux 8,1 C 7,7 C
15.07.2011 00:23 12,4 C 12,8 C 13,1 C 75 % 1016 hPa 0,0 l/m 5,5 m/s (4 Bft) NW45 310 0 min 0 lux 8,1 C 6,4 C
15.07.2011 00:28 12,4 C 12,8 C 13,1 C 75 % 1016 hPa 0,0 l/m 6,2 m/s (4 Bft) NW45 305 0 min 0 lux 8,1 C 5,7 C
15.07.2011 00:33 12,4 C 12,8 C 13,1 C 74 % 1016 hPa 0,0 l/m 5,8 m/s (4 Bft) NW45 310 0 min 0 lux 7,9 C 6,2 C
15.07.2011 00:38 12,4 C 12,9 C 13,1 C 73 % 1016 hPa 0,0 l/m 7,7 m/s (4 Bft) NW45 320 0 min 0 lux 7,7 C 4,5 C
15.07.2011 00:43 12,5 C 12,9 C 13,1 C 73 % 1016 hPa 0,0 l/m 6,3 m/s (4 Bft) NW22.5 325 0 min 0 lux 7,8 C 5,8 C
15.07.2011 00:48 12,5 C 12,9 C 13,1 C 73 % 1016 hPa 0,0 l/m 6,9 m/s (4 Bft) NW22.5 320 0 min 0 lux 7,8 C 5,3 C
15.07.2011 00:53 12,5 C 12,9 C 13,2 C 73 % 1016 hPa 0,0 l/m 6,9 m/s (4 Bft) NW22.5 320 0 min 0 lux 7,8 C 5,3 C
15.07.2011 00:58 12,5 C 13,0 C 13,3 C 74 % 1016 hPa 0,0 l/m 6,8 m/s (4 Bft) NW45 315 0 min 0 lux 8,0 C 5,3 C
15.07.2011 01:03 12,5 C 13,0 C 13,3 C 74 % 1016 hPa 0,0 l/m 6,8 m/s (4 Bft) NW45 315 0 min 0 lux 8,0 C 5,3 C
15.07.2011 01:08 12,4 C 13,0 C 13,2 C 75 % 1016 hPa 0,0 l/m 4,5 m/s (3 Bft) NW67.5 315 0 min 0 lux 8,1 C 7,6 C
15.07.2011 01:13 12,4 C 13,0 C 13,1 C 74 % 1016 hPa 0,0 l/m 6,0 m/s (4 Bft) NW45 320 0 min 0 lux 7,9 C 5,9 C
15.07.2011 01:18 12,4 C 13,0 C 13,1 C 74 % 1016 hPa 0,0 l/m 6,3 m/s (4 Bft) NW22.5 325 0 min 0 lux 7,9 C 5,7 C
15.07.2011 01:23 12,4 C 13,0 C 13,1 C 74 % 1016 hPa 0,0 l/m 6,0 m/s (4 Bft) NW22.5 315 0 min 0 lux 7,9 C 6,0 C
15.07.2011 01:28 12,5 C 13,0 C 13,0 C 74 % 1016 hPa 0,0 l/m 7,4 m/s (4 Bft) NW22.5 325 0 min 0 lux 8,0 C 4,8 C
15.07.2011 01:33 12,4 C 13,0 C 13,1 C 74 % 1016 hPa 0,0 l/m 7,4 m/s (4 Bft) NW22.5 320 0 min 0 lux 7,9 C 4,7 C
15.07.2011 01:38 12,4 C 13,0 C 13,1 C 73 % 1016 hPa 0,0 l/m 7,5 m/s (4 Bft) NW45 315 0 min 0 lux 7,7 C 4,6 C
15.07.2011 01:43 12,4 C 13,0 C 13,1 C 74 % 1016 hPa 0,0 l/m 6,9 m/s (4 Bft) NW45 315 0 min 0 lux 7,9 C 5,1 C
15.07.2011 01:48 12,4 C 12,9 C 13,1 C 74 % 1016 hPa 0,0 l/m 7,6 m/s (4 Bft) NW45 315 0 min 0 lux 7,9 C 4,6 C
15.07.2011 01:53 12,4 C 12,9 C 13,0 C 74 % 1016 hPa 0,0 l/m 7,6 m/s (4 Bft) NW22.5 315 0 min 0 lux 7,9 C 4,6 C
15.07.2011 01:58 12,4 C 12,9 C 13,1 C 74 % 1016 hPa 0,0 l/m 7,5 m/s (4 Bft) NW22.5 320 0 min 0 lux 7,9 C 4,6 C
15.07.2011 02:03 12,4 C 12,9 C 12,9 C 74 % 1016 hPa 0,0 l/m 7,5 m/s (4 Bft) NW22.5 320 0 min 0 lux 7,9 C 4,6 C
15.07.2011 02:08 12,3 C 12,9 C 12,8 C 73 % 1016 hPa 0,0 l/m 7,5 m/s (4 Bft) NW22.5 320 0 min 0 lux 7,6 C 4,5 C
15.07.2011 02:13 12,2 C 12,9 C 12,8 C 73 % 1016 hPa 0,0 l/m 8,9 m/s (5 Bft) NW22.5 310 0 min 0 lux 7,5 C 3,3 C
15.07.2011 02:18 12,2 C 12,8 C 12,9 C 74 % 1016 hPa 0,0 l/m 7,6 m/s (4 Bft) NW22.5 310 0 min 0 lux 7,7 C 4,3 C
15.07.2011 02:23 12,2 C 12,8 C 12,8 C 74 % 1016 hPa 0,0 l/m 7,3 m/s (4 Bft) NW45 315 0 min 0 lux 7,7 C 4,6 C
15.07.2011 02:28 12,1 C 12,8 C 12,8 C 75 % 1016 hPa 0,0 l/m 7,0 m/s (4 Bft) NW22.5 320 0 min 0 lux 7,8 C 4,6 C
15.07.2011 02:33 12,0 C 12,7 C 12,8 C 76 % 1016 hPa 0,0 l/m 8,0 m/s (4 Bft) NW22.5 315 0 min 0 lux 7,9 C 3,7 C
15.07.2011 02:38 11,8 C 12,7 C 12,9 C 77 % 1016 hPa 0,0 l/m 5,8 m/s (4 Bft) NW45 315 0 min 0 lux 7,9 C 5,3 C
15.07.2011 02:43 11,8 C 12,6 C 12,7 C 77 % 1016 hPa 0,0 l/m 4,6 m/s (3 Bft) W-NW45 300 0 min 0 lux 7,9 C 6,8 C
15.07.2011 02:48 11,8 C 12,6 C 12,8 C 77 % 1016 hPa 0,0 l/m 4,8 m/s (3 Bft) NW45 320 0 min 0 lux 7,9 C 6,5 C
15.07.2011 02:53 11,7 C 12,5 C 12,8 C 78 % 1016 hPa 0,0 l/m 3,9 m/s (3 Bft) W-NW67.5 300 0 min 0 lux 8,0 C 7,6 C
15.07.2011 02:58 11,7 C 12,5 C 12,8 C 78 % 1016 hPa 0,0 l/m 3,9 m/s (3 Bft) W-NW67.5 300 0 min 0 lux 8,0 C 7,6 C
15.07.2011 03:03 11,7 C 12,4 C 12,8 C 78 % 1016 hPa 0,0 l/m 6,7 m/s (4 Bft) NW67.5 305 0 min 0 lux 8,0 C 4,3 C
15.07.2011 03:07 11,7 C 12,4 C 12,8 C 77 % 1016 hPa 0,0 l/m 3,4 m/s (2 Bft) NW45 315 0 min 0 lux 7,8 C 8,4 C
15.07.2011 03:12 11,8 C 12,4 C 12,7 C 77 % 1016 hPa 0,0 l/m 4,7 m/s (3 Bft) NW45 320 0 min 0 lux 7,9 C 6,6 C
15.07.2011 03:17 11,8 C 12,4 C 12,6 C 76 % 1016 hPa 0,0 l/m 5,2 m/s (3 Bft) NW45 320 0 min 0 lux 7,7 C 6,0 C
15.07.2011 03:22 11,9 C 12,4 C 12,7 C 76 % 1016 hPa 0,0 l/m 5,2 m/s (3 Bft) NW45 320 0 min 0 lux 7,8 C 6,2 C
15.07.2011 03:27 11,9 C 12,4 C 12,7 C 76 % 1016 hPa 0,0 l/m 6,3 m/s (4 Bft) NW45 315 0 min 0 lux 7,8 C 5,0 C
15.07.2011 03:32 11,9 C 12,4 C 12,8 C 76 % 1016 hPa 0,0 l/m 4,0 m/s (3 Bft) NW45 305 0 min 0 lux 7,8 C 7,6 C
15.07.2011 03:37 11,9 C 12,4 C 12,7 C 76 % 1016 hPa 0,0 l/m 4,6 m/s (3 Bft) NW67.5 310 0 min 0 lux 7,8 C 6,9 C
15.07.2011 03:42 11,9 C 12,4 C 12,8 C 76 % 1016 hPa 0,0 l/m 2,7 m/s (2 Bft) W-NW45 285 0 min 0 lux 7,8 C 9,9 C
15.07.2011 03:47 11,9 C 12,4 C 12,8 C 76 % 1016 hPa 0,0 l/m 4,3 m/s (3 Bft) NW45 305 0 min 0 lux 7,8 C 7,3 C
15.07.2011 03:52 12,0 C 12,5 C 12,8 C 75 % 1016 hPa 0,0 l/m 5,3 m/s (3 Bft) W-NW45 295 0 min 0 lux 7,7 C 6,1 C
15.07.2011 03:57 12,0 C 12,5 C 12,8 C 75 % 1016 hPa 0,0 l/m 5,1 m/s (3 Bft) NW45 320 0 min 0 lux 7,7 C 6,4 C
15.07.2011 04:02 12,0 C 12,5 C 12,7 C 75 % 1016 hPa 0,0 l/m 3,8 m/s (3 Bft) NW22.5 320 0 min 0 lux 7,7 C 8,1 C
15.07.2011 04:07 12,1 C 12,5 C 12,7 C 74 % 1016 hPa 0,0 l/m 4,8 m/s (3 Bft) NW22.5 315 0 min 0 lux 7,6 C 6,9 C
15.07.2011 04:12 12,2 C 12,6 C 12,8 C 74 % 1016 hPa 0,0 l/m 3,7 m/s (3 Bft) NW45 305 0 min 0 lux 7,7 C 8,4 C
15.07.2011 04:17 12,2 C 12,6 C 12,7 C 74 % 1016 hPa 0,0 l/m 3,6 m/s (3 Bft) NW45 305 0 min 0 lux 7,7 C 8,6 C
15.07.2011 04:22 12,2 C 12,6 C 12,8 C 74 % 1016 hPa 0,0 l/m 3,2 m/s (2 Bft) W-NW45 295 0 min 0 lux 7,7 C 9,3 C
15.07.2011 04:27 12,2 C 12,6 C 12,8 C 73 % 1016 hPa 0,0 l/m 4,4 m/s (3 Bft) NW45 315 0 min 0 lux 7,5 C 7,4 C
15.07.2011 04:32 12,3 C 12,6 C 12,8 C 72 % 1016 hPa 0,0 l/m 4,7 m/s (3 Bft) NW45 310 0 min 0 lux 7,4 C 7,2 C
15.07.2011 04:37 12,3 C 12,7 C 12,8 C 72 % 1016 hPa 0,0 l/m 4,3 m/s (3 Bft) W-NW45 285 0 min 0 lux 7,4 C 7,7 C
15.07.2011 04:42 12,4 C 12,7 C 12,9 C 72 % 1016 hPa 0,0 l/m 2,3 m/s (2 Bft) W45 275 0 min 0 lux 7,5 C 11,2 C
15.07.2011 04:47 12,4 C 12,7 C 12,8 C 72 % 1016 hPa 0,0 l/m 1,0 m/s (1 Bft) W45 280 0 min 0 lux 7,5 C 12,4 C
15.07.2011 04:52 12,4 C 12,8 C 12,8 C 72 % 1016 hPa 0,0 l/m 3,5 m/s (3 Bft) W-NW45 295 0 min 0 lux 7,5 C 9,0 C
15.07.2011 04:57 12,4 C 12,8 C 13,0 C 72 % 1016 hPa 0,0 l/m 4,1 m/s (3 Bft) NW45 305 0 min 0 lux 7,5 C 8,2 C
15.07.2011 05:02 12,4 C 12,8 C 13,0 C 72 % 1016 hPa 0,0 l/m 4,1 m/s (3 Bft) NW45 305 0 min 0 lux 7,5 C 8,2 C
15.07.2011 05:07 12,4 C 12,8 C 12,9 C 72 % 1016 hPa 0,0 l/m 2,9 m/s (2 Bft) W67.5 280 0 min 0 lux 7,5 C 9,9 C
15.07.2011 05:12 12,4 C 12,8 C 12,9 C 72 % 1016 hPa 0,0 l/m 2,5 m/s (2 Bft) NW45 305 0 min 0 lux 7,5 C 10,8 C
15.07.2011 05:17 12,4 C 12,8 C 12,9 C 73 % 1016 hPa 0,0 l/m 3,0 m/s (2 Bft) W-NW67.5 285 0 min 49 lux 7,7 C 9,8 C
15.07.2011 05:22 12,4 C 12,8 C 12,9 C 73 % 1016 hPa 0,0 l/m 2,8 m/s (2 Bft) W67.5 270 0 min 102 lux 7,7 C 10,2 C
15.07.2011 05:27 12,3 C 12,8 C 12,9 C 73 % 1016 hPa 0,0 l/m 2,3 m/s (2 Bft) W45 275 0 min 131 lux 7,6 C 11,0 C
15.07.2011 05:32 12,2 C 12,8 C 12,9 C 74 % 1016 hPa 0,0 l/m 3,6 m/s (3 Bft) W-NW45 285 0 min 289 lux 7,7 C 8,6 C
15.07.2011 05:38 12,2 C 12,7 C 12,8 C 74 % 1016 hPa 0,0 l/m 3,4 m/s (3 Bft) W67.5 260 0 min 558 lux 7,7 C 8,9 C
15.07.2011 05:43 12,1 C 12,7 C 12,7 C 75 % 1016 hPa 0,0 l/m 0,4 m/s (1 Bft) W-SW45 255 0 min 1,01 klux 7,8 C 12,1 C
15.07.2011 05:48 12,0 C 12,6 C 12,8 C 75 % 1016 hPa 0,0 l/m 0,3 m/s (1 Bft) W-SW67.5 255 0 min 1,37 klux 7,7 C 12,0 C
15.07.2011 05:53 12,0 C 12,6 C 12,6 C 75 % 1016 hPa 0,0 l/m 2,2 m/s (2 Bft) W45 270 0 min 1,65 klux 7,7 C 11,1 C
15.07.2011 05:58 12,0 C 12,5 C 12,7 C 76 % 1016 hPa 0,0 l/m 2,6 m/s (2 Bft) W-NW67.5 290 0 min 1,88 klux 7,9 C 10,2 C
15.07.2011 06:03 11,9 C 12,5 C 12,7 C 76 % 1016 hPa 0,0 l/m 2,6 m/s (2 Bft) W-NW67.5 290 0 min 2,09 klux 7,8 C 10,1 C
15.07.2011 06:08 12,0 C 12,5 C 12,7 C 76 % 1016 hPa 0,0 l/m 4,3 m/s (3 Bft) NW22.5 305 0 min 2,30 klux 7,9 C 7,4 C
15.07.2011 06:13 12,0 C 12,5 C 12,7 C 76 % 1016 hPa 0,0 l/m 4,5 m/s (3 Bft) NW45 305 0 min 2,40 klux 7,9 C 7,1 C
15.07.2011 06:18 12,0 C 12,5 C 12,7 C 76 % 1016 hPa 0,0 l/m 5,3 m/s (3 Bft) NW22.5 320 0 min 2,92 klux 7,9 C 6,2 C
15.07.2011 06:23 12,1 C 12,5 C 12,7 C 76 % 1016 hPa 0,0 l/m 4,3 m/s (3 Bft) NW45 315 0 min 3,53 klux 8,0 C 7,5 C
15.07.2011 06:28 12,1 C 12,5 C 12,8 C 76 % 1016 hPa 0,0 l/m 4,3 m/s (3 Bft) NW67.5 310 0 min 3,89 klux 8,0 C 7,5 C
15.07.2011 06:33 12,1 C 12,5 C 12,7 C 76 % 1017 hPa 0,0 l/m 4,0 m/s (3 Bft) NW45 305 0 min 4,51 klux 8,0 C 7,9 C
15.07.2011 06:38 12,1 C 12,5 C 12,7 C 76 % 1017 hPa 0,0 l/m 4,9 m/s (3 Bft) NW45 320 0 min 5,21 klux 8,0 C 6,8 C
15.07.2011 06:43 12,1 C 12,5 C 12,7 C 76 % 1017 hPa 0,0 l/m 3,7 m/s (3 Bft) NW45 305 0 min 5,98 klux 8,0 C 8,4 C
15.07.2011 06:48 12,1 C 12,5 C 12,7 C 76 % 1017 hPa 0,0 l/m 3,8 m/s (3 Bft) W-NW45 300 0 min 6,17 klux 8,0 C 8,2 C
15.07.2011 06:53 12,2 C 12,6 C 12,7 C 76 % 1017 hPa 0,0 l/m 3,9 m/s (3 Bft) NW45 320 0 min 6,17 klux 8,1 C 8,2 C
15.07.2011 06:58 12,3 C 12,6 C 12,9 C 76 % 1017 hPa 0,0 l/m 3,9 m/s (3 Bft) NW45 320 0 min 6,67 klux 8,2 C 8,3 C
15.07.2011 07:03 12,3 C 12,7 C 13,0 C 75 % 1017 hPa 0,0 l/m 3,2 m/s (2 Bft) NW45 305 0 min 7,48 klux 8,0 C 9,4 C
15.07.2011 07:08 12,4 C 12,7 C 13,2 C 76 % 1017 hPa 0,0 l/m 4,1 m/s (3 Bft) NW45 305 0 min 9,5 klux 8,3 C 8,1 C
15.07.2011 07:13 12,5 C 12,8 C 13,3 C 75 % 1017 hPa 0,0 l/m 3,9 m/s (3 Bft) NW45 310 0 min 10,6 klux 8,2 C 8,5 C
15.07.2011 07:18 12,8 C 12,9 C 13,4 C 75 % 1017 hPa 0,0 l/m 5,0 m/s (3 Bft) NW67.5 305 0 min 10,4 klux 8,5 C 7,5 C
15.07.2011 07:23 12,9 C 13,0 C 13,4 C 74 % 1017 hPa 0,0 l/m 3,6 m/s (3 Bft) W-NW45 300 0 min 11,3 klux 8,4 C 9,4 C
15.07.2011 07:28 13,0 C 13,2 C 13,4 C 73 % 1017 hPa 0,0 l/m 5,3 m/s (3 Bft) NW45 315 0 min 12,2 klux 8,3 C 7,4 C
15.07.2011 07:33 13,2 C 13,2 C 13,6 C 72 % 1017 hPa 0,0 l/m 5,9 m/s (4 Bft) NW45 320 0 min 13,2 klux 8,3 C 7,1 C
15.07.2011 07:38 13,3 C 13,3 C 13,8 C 73 % 1017 hPa 0,0 l/m 4,6 m/s (3 Bft) NW45 320 0 min 14,1 klux 8,6 C 8,6 C
15.07.2011 07:43 13,5 C 13,4 C 13,9 C 72 % 1017 hPa 0,0 l/m 3,9 m/s (3 Bft) NW45 315 0 min 13,5 klux 8,6 C 9,7 C
15.07.2011 07:48 13,6 C 13,5 C 13,9 C 71 % 1017 hPa 0,0 l/m 1,1 m/s (1 Bft) W-NW67.5 290 0 min 13,2 klux 8,4 C 13,6 C
15.07.2011 07:53 13,6 C 13,6 C 13,8 C 71 % 1017 hPa 0,0 l/m 5,7 m/s (4 Bft) W-NW45 300 0 min 12,1 klux 8,4 C 7,8 C
15.07.2011 07:58 13,6 C 13,7 C 13,9 C 72 % 1017 hPa 0,0 l/m 5,9 m/s (4 Bft) NW45 310 0 min 10,9 klux 8,6 C 7,6 C
15.07.2011 08:03 13,5 C 13,7 C 13,9 C 71 % 1017 hPa 0,0 l/m 6,3 m/s (4 Bft) N-NW22.5 330 0 min 12,3 klux 8,3 C 7,1 C
15.07.2011 08:08 13,6 C 13,8 C 14,2 C 71 % 1017 hPa 0,0 l/m 5,8 m/s (4 Bft) NW22.5 315 0 min 16,7 klux 8,4 C 7,7 C
15.07.2011 08:13 14,0 C 13,9 C 14,5 C 71 % 1017 hPa 0,0 l/m 4,8 m/s (3 Bft) NW45 315 0 min 23,5 klux 8,8 C 9,3 C
15.07.2011 08:18 14,4 C 14,1 C 14,8 C 69 % 1017 hPa 0,0 l/m 4,6 m/s (3 Bft) NW67.5 310 0 min 23,0 klux 8,8 C 10,0 C
15.07.2011 08:23 14,4 C 14,1 C 14,9 C 69 % 1017 hPa 0,0 l/m 6,3 m/s (4 Bft) NW45 315 0 min 18,1 klux 8,8 C 8,3 C
15.07.2011 08:28 14,3 C 14,2 C 14,6 C 69 % 1017 hPa 0,0 l/m 5,1 m/s (3 Bft) NW45 315 0 min 15,8 klux 8,7 C 9,3 C
15.07.2011 08:33 14,2 C 14,2 C 14,7 C 69 % 1017 hPa 0,0 l/m 7,2 m/s (4 Bft) NW45 310 0 min 14,1 klux 8,6 C 7,4 C
15.07.2011 08:38 14,1 C 14,3 C 14,7 C 70 % 1017 hPa 0,0 l/m 5,9 m/s (4 Bft) NW67.5 310 0 min 14,1 klux 8,7 C 8,3 C
15.07.2011 08:43 14,2 C 14,3 C 14,9 C 70 % 1017 hPa 0,0 l/m 6,0 m/s (4 Bft) NW45 305 0 min 17,0 klux 8,8 C 8,3 C
15.07.2011 08:48 14,3 C 14,4 C 14,9 C 70 % 1018 hPa 0,0 l/m 4,8 m/s (3 Bft) NW67.5 310 0 min 16,9 klux 8,9 C 9,7 C
15.07.2011 08:53 14,3 C 14,5 C 15,0 C 70 % 1018 hPa 0,0 l/m 5,1 m/s (3 Bft) W-NW45 295 0 min 17,5 klux 8,9 C 9,3 C
15.07.2011 08:58 14,3 C 14,5 C 15,0 C 69 % 1018 hPa 0,0 l/m 5,3 m/s (3 Bft) NW22.5 315 0 min 17,4 klux 8,7 C 9,1 C
15.07.2011 09:02 14,2 C 14,6 C 15,0 C 70 % 1018 hPa 0,0 l/m 3,4 m/s (2 Bft) NW45 315 0 min 14,3 klux 8,8 C 11,3 C
15.07.2011 09:07 14,2 C 14,6 C 14,9 C 70 % 1018 hPa 0,0 l/m 3,4 m/s (2 Bft) NW45 315 0 min 15,1 klux 8,8 C 11,3 C
15.07.2011 09:12 14,2 C 14,7 C 14,9 C 70 % 1018 hPa 0,0 l/m 5,0 m/s (3 Bft) NW45 310 0 min 16,7 klux 8,8 C 9,2 C
15.07.2011 09:18 14,3 C 14,7 C 15,2 C 69 % 1018 hPa 0,0 l/m 4,2 m/s (3 Bft) NW45 305 0 min 19,0 klux 8,7 C 10,3 C
15.07.2011 09:23 14,4 C 14,8 C 15,1 C 69 % 1018 hPa 0,0 l/m 4,5 m/s (3 Bft) NW45 305 0 min 15,3 klux 8,8 C 10,1 C
15.07.2011 09:28 14,4 C 14,8 C 15,1 C 69 % 1018 hPa 0,0 l/m 5,1 m/s (3 Bft) NW45 310 0 min 17,9 klux 8,8 C 9,4 C
15.07.2011 09:33 14,5 C 14,8 C 15,3 C 68 % 1018 hPa 0,0 l/m 1,3 m/s (1 Bft) NW22.5 320 0 min 19,2 klux 8,7 C 14,5 C
15.07.2011 09:38 14,5 C 14,9 C 15,6 C 69 % 1018 hPa 0,0 l/m 1,1 m/s (1 Bft) NW45 305 0 min 23,5 klux 8,9 C 14,5 C
15.07.2011 09:43 14,8 C 15,1 C 15,5 C 68 % 1018 hPa 0,0 l/m 6,3 m/s (4 Bft) W-NW67.5 300 0 min 24,0 klux 9,0 C 8,8 C
15.07.2011 09:47 14,8 C 15,1 C 15,5 C 68 % 1018 hPa 0,0 l/m 5,6 m/s (4 Bft) NW67.5 305 0 min 17,2 klux 9,0 C 9,4 C
15.07.2011 09:52 14,8 C 15,1 C 15,7 C 68 % 1018 hPa 0,0 l/m 5,7 m/s (4 Bft) NW45 310 0 min 18,0 klux 9,0 C 9,4 C
15.07.2011 09:57 14,7 C 15,1 C 15,4 C 68 % 1018 hPa 0,0 l/m 5,2 m/s (3 Bft) NW22.5 315 0 min 17,4 klux 8,9 C 9,7 C
15.07.2011 10:02 14,8 C 15,1 C 15,5 C 68 % 1018 hPa 0,0 l/m 5,8 m/s (4 Bft) NW22.5 320 0 min 28,0 klux 9,0 C 9,3 C
15.07.2011 10:08 15,0 C 15,3 C 16,0 C 68 % 1018 hPa 0,0 l/m 5,9 m/s (4 Bft) NW45 315 0 min 32,9 klux 9,1 C 9,4 C
15.07.2011 10:13 15,0 C 15,5 C 15,7 C 67 % 1018 hPa 0,0 l/m 7,4 m/s (4 Bft) NW67.5 320 0 min 23,3 klux 8,9 C 8,3 C
15.07.2011 10:18 15,2 C 15,5 C 16,6 C 68 % 1018 hPa 0,0 l/m 4,1 m/s (3 Bft) W-NW45 300 0 min 49,4 klux 9,3 C 11,5 C
15.07.2011 10:23 15,5 C 15,8 C 16,6 C 66 % 1018 hPa 0,0 l/m 8,1 m/s (5 Bft) NW22.5 325 0 min 49,4 klux 9,2 C 8,5 C
15.07.2011 10:28 15,6 C 16,0 C 17,0 C 66 % 1018 hPa 0,0 l/m 7,1 m/s (4 Bft) NW22.5 320 5 min 60,5 klux 9,3 C 9,3 C
15.07.2011 10:33 15,9 C 16,3 C 16,9 C 65 % 1018 hPa 0,0 l/m 5,1 m/s (3 Bft) NW45 305 0 min 35,5 klux 9,3 C 11,3 C
15.07.2011 10:38 15,9 C 16,3 C 16,9 C 66 % 1018 hPa 0,0 l/m 6,9 m/s (4 Bft) NW22.5 325 5 min 70,1 klux 9,6 C 9,8 C
15.07.2011 10:43 15,8 C 16,3 C 17,1 C 66 % 1018 hPa 0,0 l/m 8,5 m/s (5 Bft) NW22.5 325 0 min 38,1 klux 9,5 C 8,7 C
15.07.2011 10:48 15,9 C 16,4 C 17,1 C 66 % 1018 hPa 0,0 l/m 7,3 m/s (4 Bft) NW45 315 0 min 36,1 klux 9,6 C 9,6 C
15.07.2011 10:53 15,9 C 16,4 C 17,9 C 66 % 1018 hPa 0,0 l/m 6,3 m/s (4 Bft) NW22.5 320 0 min 56,6 klux 9,6 C 10,3 C
15.07.2011 10:58 16,2 C 16,7 C 18,1 C 65 % 1018 hPa 0,0 l/m 5,6 m/s (4 Bft) NW22.5 325 0 min 50,4 klux 9,6 C 11,2 C
15.07.2011 11:03 16,0 C 16,9 C 17,6 C 66 % 1018 hPa 0,0 l/m 6,9 m/s (4 Bft) NW22.5 325 0 min 33,2 klux 9,7 C 10,0 C
15.07.2011 11:08 16,0 C 16,8 C 17,5 C 66 % 1018 hPa 0,0 l/m 6,3 m/s (4 Bft) NW67.5 315 0 min 31,0 klux 9,7 C 10,5 C
15.07.2011 11:13 16,0 C 16,8 C 17,3 C 66 % 1019 hPa 0,0 l/m 5,9 m/s (4 Bft) NW22.5 320 0 min 34,7 klux 9,7 C 10,7 C
15.07.2011 11:18 16,2 C 16,9 C 17,8 C 65 % 1019 hPa 0,0 l/m 6,8 m/s (4 Bft) NW45 315 0 min 36,4 klux 9,6 C 10,3 C
15.07.2011 11:23 16,2 C 16,9 C 17,4 C 65 % 1019 hPa 0,0 l/m 5,1 m/s (3 Bft) NW22.5 310 0 min 27,5 klux 9,6 C 11,7 C
15.07.2011 11:28 16,3 C 16,9 C 18,2 C 65 % 1019 hPa 0,0 l/m 5,3 m/s (3 Bft) NW45 305 0 min 35,5 klux 9,7 C 11,7 C
15.07.2011 11:33 16,5 C 17,0 C 18,3 C 64 % 1019 hPa 0,0 l/m 7,1 m/s (4 Bft) NW45 310 0 min 37,2 klux 9,7 C 10,6 C
15.07.2011 11:38 16,6 C 17,1 C 18,2 C 64 % 1019 hPa 0,0 l/m 6,1 m/s (4 Bft) NW22.5 320 0 min 41,5 klux 9,8 C 11,4 C
15.07.2011 11:43 16,8 C 17,2 C 18,8 C 63 % 1019 hPa 0,0 l/m 5,5 m/s (3 Bft) NW67.5 315 0 min 52,1 klux 9,7 C 12,1 C
15.07.2011 11:48 17,1 C 17,5 C 19,1 C 62 % 1019 hPa 0,0 l/m 6,1 m/s (4 Bft) NW45 315 0 min 63,0 klux 9,8 C 12,0 C
15.07.2011 11:53 17,4 C 17,9 C 19,1 C 61 % 1019 hPa 0,0 l/m 5,6 m/s (4 Bft) NW45 320 0 min 51,7 klux 9,8 C 12,8 C
15.07.2011 11:58 17,3 C 18,0 C 18,7 C 62 % 1019 hPa 0,0 l/m 5,8 m/s (4 Bft) NW45 320 0 min 34,3 klux 9,9 C 12,5 C
15.07.2011 12:03 16,9 C 17,9 C 17,9 C 62 % 1019 hPa 0,0 l/m 5,7 m/s (4 Bft) NW45 315 0 min 20,0 klux 9,6 C 12,1 C
15.07.2011 12:08 16,6 C 17,8 C 18,0 C 63 % 1019 hPa 0,0 l/m 6,5 m/s (4 Bft) NW22.5 320 0 min 18,5 klux 9,5 C 11,1 C
15.07.2011 12:13 16,3 C 17,7 C 17,9 C 63 % 1019 hPa 0,0 l/m 6,4 m/s (4 Bft) NW22.5 320 0 min 23,6 klux 9,2 C 10,8 C
15.07.2011 12:18 16,6 C 17,8 C 18,4 C 63 % 1019 hPa 0,0 l/m 6,1 m/s (4 Bft) NW45 320 0 min 31,9 klux 9,5 C 11,4 C
15.07.2011 12:23 16,5 C 17,8 C 18,0 C 62 % 1019 hPa 0,0 l/m 7,0 m/s (4 Bft) NW45 320 0 min 21,0 klux 9,2 C 10,6 C
15.07.2011 12:28 16,3 C 17,6 C 17,7 C 63 % 1019 hPa 0,0 l/m 4,9 m/s (3 Bft) NW45 305 0 min 10,5 klux 9,2 C 12,0 C
15.07.2011 12:33 16,2 C 17,4 C 17,6 C 64 % 1019 hPa 0,0 l/m 4,0 m/s (3 Bft) NW45 305 0 min 10,8 klux 9,4 C 12,9 C
15.07.2011 12:38 16,0 C 17,2 C 17,1 C 64 % 1019 hPa 0,0 l/m 3,9 m/s (3 Bft) NW45 310 0 min 9,8 klux 9,2 C 12,7 C
15.07.2011 12:43 15,9 C 17,1 C 17,4 C 65 % 1019 hPa 0,0 l/m 4,4 m/s (3 Bft) N-NW22.5 330 0 min 18,4 klux 9,3 C 12,0 C
15.07.2011 12:48 16,0 C 17,0 C 17,6 C 64 % 1019 hPa 0,0 l/m 5,8 m/s (4 Bft) NW22.5 325 0 min 22,1 klux 9,2 C 10,9 C
15.07.2011 12:53 16,4 C 17,1 C 18,7 C 65 % 1019 hPa 0,0 l/m 5,4 m/s (3 Bft) NW22.5 325 0 min 40,6 klux 9,8 C 11,6 C
15.07.2011 12:58 17,0 C 17,6 C 19,0 C 62 % 1019 hPa 0,0 l/m 4,9 m/s (3 Bft) NW45 310 0 min 40,6 klux 9,7 C 12,9 C
15.07.2011 13:03 17,3 C 18,0 C 19,8 C 62 % 1019 hPa 0,0 l/m 5,7 m/s (4 Bft) NW22.5 325 0 min 45,3 klux 9,9 C 12,6 C
15.07.2011 13:08 17,6 C 18,2 C 20,0 C 61 % 1019 hPa 0,0 l/m 5,0 m/s (3 Bft) NW22.5 320 0 min 51,1 klux 10,0 C 13,6 C
15.07.2011 13:13 17,9 C 18,4 C 19,8 C 60 % 1019 hPa 0,0 l/m 3,9 m/s (3 Bft) W-NW45 300 5 min 103 klux 10,0 C 15,0 C
15.07.2011 13:18 18,0 C 18,6 C 20,0 C 61 % 1019 hPa 0,0 l/m 3,8 m/s (3 Bft) NW45 305 0 min 45,9 klux 10,4 C 15,3 C
15.07.2011 13:23 18,2 C 19,1 C 20,2 C 61 % 1019 hPa 0,0 l/m 3,2 m/s (2 Bft) NW22.5 305 0 min 54,9 klux 10,6 C 16,2 C
15.07.2011 13:28 18,4 C 19,3 C 19,5 C 59 % 1019 hPa 0,0 l/m 4,1 m/s (3 Bft) NW45 320 0 min 38,5 klux 10,2 C 15,4 C
15.07.2011 13:33 18,4 C 19,3 C 19,8 C 59 % 1019 hPa 0,0 l/m 4,4 m/s (3 Bft) NW22.5 325 0 min 52,9 klux 10,2 C 15,1 C
15.07.2011 13:38 18,8 C 19,9 C 21,3 C 60 % 1019 hPa 0,0 l/m 4,4 m/s (3 Bft) NW22.5 325 5 min 74,1 klux 10,9 C 15,6 C
15.07.2011 13:43 18,9 C 20,2 C 21,7 C 55 % 1019 hPa 0,0 l/m 5,4 m/s (3 Bft) NW45 320 5 min 124 klux 9,7 C 14,9 C
15.07.2011 13:48 19,9 C 21,9 C 23,9 C 52 % 1019 hPa 0,0 l/m 7,9 m/s (4 Bft) NW45 305 5 min 127 klux 9,7 C 14,8 C
15.07.2011 13:52 20,1 C 21,8 C 23,9 C 51 % 1019 hPa 0,0 l/m 6,6 m/s (4 Bft) NW45 310 0 min 55,6 klux 9,6 C 15,7 C
15.07.2011 13:57 19,5 C 22,0 C 21,8 C 52 % 1019 hPa 0,0 l/m 5,0 m/s (3 Bft) NW22.5 320 0 min 57,8 klux 9,4 C 16,0 C
15.07.2011 14:02 19,5 C 21,9 C 21,7 C 53 % 1019 hPa 0,0 l/m 3,0 m/s (2 Bft) W-NW45 295 0 min 43,1 klux 9,7 C 17,9 C
15.07.2011 14:07 19,5 C 21,5 C 22,4 C 54 % 1019 hPa 0,0 l/m 4,9 m/s (3 Bft) NW45 310 0 min 56,6 klux 9,9 C 16,0 C
15.07.2011 14:12 19,7 C 21,2 C 22,4 C 55 % 1019 hPa 0,0 l/m 5,6 m/s (4 Bft) NW45 325 0 min 58,8 klux 10,4 C 15,8 C
15.07.2011 14:17 20,2 C 21,3 C 22,8 C 54 % 1019 hPa 0,0 l/m 4,6 m/s (3 Bft) NW22.5 315 0 min 67,9 klux 10,6 C 17,1 C
15.07.2011 14:22 20,2 C 21,7 C 23,4 C 54 % 1019 hPa 0,0 l/m 4,7 m/s (3 Bft) NW67.5 315 5 min 78,7 klux 10,6 C 17,1 C
15.07.2011 14:27 20,6 C 22,1 C 23,5 C 53 % 1019 hPa 0,0 l/m 2,9 m/s (2 Bft) W45 275 0 min 60,3 klux 10,7 C 19,2 C
15.07.2011 14:32 20,8 C 22,2 C 23,3 C 53 % 1019 hPa 0,0 l/m 5,1 m/s (3 Bft) W45 280 0 min 52,8 klux 10,9 C 17,5 C
15.07.2011 14:37 20,7 C 22,2 C 23,4 C 50 % 1019 hPa 0,0 l/m 3,8 m/s (3 Bft) W45 275 0 min 62,2 klux 9,9 C 18,4 C
15.07.2011 14:42 20,6 C 22,2 C 22,9 C 52 % 1019 hPa 0,0 l/m 4,0 m/s (3 Bft) NW45 305 0 min 41,8 klux 10,4 C 18,1 C
15.07.2011 14:47 20,5 C 22,0 C 22,7 C 50 % 1019 hPa 0,0 l/m 3,9 m/s (3 Bft) NW22.5 320 0 min 38,0 klux 9,7 C 18,1 C
15.07.2011 14:52 20,3 C 21,8 C 22,7 C 49 % 1019 hPa 0,0 l/m 4,9 m/s (3 Bft) NW45 320 0 min 44,3 klux 9,2 C 17,1 C
15.07.2011 14:57 20,5 C 21,8 C 22,9 C 50 % 1019 hPa 0,0 l/m 4,5 m/s (3 Bft) N-NW67.5 335 0 min 46,1 klux 9,7 C 17,6 C
15.07.2011 15:02 20,6 C 21,8 C 22,5 C 47 % 1019 hPa 0,0 l/m 4,5 m/s (3 Bft) NW45 310 0 min 40,5 klux 8,9 C 17,7 C
15.07.2011 15:07 20,4 C 21,8 C 22,9 C 48 % 1019 hPa 0,0 l/m 6,1 m/s (4 Bft) NW45 305 0 min 48,5 klux 9,0 C 16,4 C
15.07.2011 15:12 20,4 C 21,9 C 22,4 C 47 % 1019 hPa 0,0 l/m 5,2 m/s (3 Bft) NW22.5 320 0 min 52,0 klux 8,7 C 17,0 C
15.07.2011 15:17 20,2 C 22,1 C 22,9 C 49 % 1019 hPa 0,0 l/m 4,8 m/s (3 Bft) NW45 325 5 min 73,0 klux 9,1 C 17,0 C
15.07.2011 15:22 19,9 C 22,1 C 21,5 C 48 % 1019 hPa 0,0 l/m 4,3 m/s (3 Bft) NW22.5 310 0 min 26,8 klux 8,6 C 17,0 C
15.07.2011 15:27 19,7 C 21,9 C 21,1 C 48 % 1019 hPa 0,0 l/m 5,3 m/s (3 Bft) NW45 310 0 min 26,3 klux 8,4 C 16,0 C
15.07.2011 15:32 19,8 C 21,8 C 22,3 C 48 % 1019 hPa 0,0 l/m 5,8 m/s (4 Bft) W-NW45 295 0 min 42,8 klux 8,5 C 15,8 C
15.07.2011 15:37 20,4 C 22,1 C 22,3 C 48 % 1019 hPa 0,0 l/m 4,2 m/s (3 Bft) NW67.5 305 0 min 50,5 klux 9,0 C 17,7 C
15.07.2011 15:42 20,9 C 22,1 C 23,2 C 46 % 1019 hPa 0,0 l/m 6,1 m/s (4 Bft) W-NW45 300 5 min 95,3 klux 8,8 C 17,0 C
15.07.2011 15:47 21,2 C 23,2 C 23,7 C 44 % 1018 hPa 0,0 l/m 5,6 m/s (4 Bft) NW45 315 5 min 79,4 klux 8,5 C 17,7 C
15.07.2011 15:52 21,6 C 23,8 C 23,9 C 41 % 1018 hPa 0,0 l/m 5,7 m/s (4 Bft) NW45 315 5 min 76,4 klux 7,8 C 18,2 C
15.07.2011 15:57 21,2 C 23,5 C 23,1 C 41 % 1019 hPa 0,0 l/m 7,7 m/s (4 Bft) N-NW22.5 330 5 min 79,2 klux 7,4 C 16,7 C
15.07.2011 16:02 21,2 C 23,7 C 23,3 C 41 % 1019 hPa 0,0 l/m 5,8 m/s (4 Bft) W-NW45 295 5 min 103 klux 7,4 C 17,6 C
15.07.2011 16:07 21,6 C 23,7 C 23,7 C 41 % 1018 hPa 0,0 l/m 5,0 m/s (3 Bft) NW45 305 5 min 98,1 klux 7,8 C 18,6 C
15.07.2011 16:13 21,8 C 25,3 C 23,3 C 40 % 1018 hPa 0,0 l/m 5,2 m/s (3 Bft) NW22.5 315 6 min 95,4 klux 7,6 C 18,8 C
15.07.2011 16:18 21,8 C 25,6 C 22,9 C 40 % 1018 hPa 0,0 l/m 2,8 m/s (2 Bft) W-NW45 295 5 min 74,7 klux 7,6 C 20,6 C
15.07.2011 16:23 21,8 C 26,1 C 23,0 C 40 % 1018 hPa 0,0 l/m 4,5 m/s (3 Bft) W-NW67.5 290 5 min 85,3 klux 7,6 C 19,2 C
15.07.2011 16:28 21,3 C 26,0 C 22,8 C 40 % 1018 hPa 0,0 l/m 5,7 m/s (4 Bft) NW45 315 0 min 42,8 klux 7,1 C 17,8 C
15.07.2011 16:33 21,6 C 26,0 C 22,9 C 40 % 1018 hPa 0,0 l/m 7,0 m/s (4 Bft) NW45 310 5 min 99 klux 7,4 C 17,5 C
15.07.2011 16:38 21,3 C 25,7 C 22,7 C 41 % 1018 hPa 0,0 l/m 5,9 m/s (4 Bft) NW22.5 320 5 min 83,6 klux 7,5 C 17,7 C
15.07.2011 16:43 21,8 C 26,4 C 22,7 C 40 % 1018 hPa 0,0 l/m 5,7 m/s (4 Bft) NW22.5 320 5 min 80,3 klux 7,6 C 18,4 C
15.07.2011 16:48 21,5 C 26,3 C 22,7 C 39 % 1018 hPa 0,0 l/m 6,9 m/s (4 Bft) NW22.5 320 5 min 81,1 klux 7,0 C 17,4 C
15.07.2011 16:53 21,4 C 26,5 C 22,3 C 40 % 1018 hPa 0,0 l/m 6,3 m/s (4 Bft) NW67.5 320 5 min 73,4 klux 7,2 C 17,6 C
15.07.2011 16:58 21,1 C 25,9 C 22,8 C 41 % 1018 hPa 0,0 l/m 4,5 m/s (3 Bft) W-NW67.5 300 5 min 67,7 klux 7,3 C 18,4 C
15.07.2011 17:03 21,3 C 26,3 C 23,8 C 40 % 1018 hPa 0,0 l/m 4,5 m/s (3 Bft) NW45 305 5 min 76,7 klux 7,1 C 18,6 C
15.07.2011 17:08 21,1 C 26,3 C 21,9 C 41 % 1018 hPa 0,0 l/m 4,1 m/s (3 Bft) W45 280 5 min 75,6 klux 7,3 C 18,7 C
15.07.2011 17:13 21,0 C 25,8 C 23,2 C 40 % 1018 hPa 0,0 l/m 4,6 m/s (3 Bft) NW45 305 5 min 72,5 klux 6,9 C 18,1 C
15.07.2011 17:18 21,4 C 26,0 C 24,8 C 40 % 1018 hPa 0,0 l/m 6,9 m/s (4 Bft) W-NW45 300 5 min 72,9 klux 7,2 C 17,3 C
15.07.2011 17:23 21,5 C 26,5 C 25,7 C 39 % 1018 hPa 0,0 l/m 6,1 m/s (4 Bft) NW45 320 5 min 73,1 klux 7,0 C 17,8 C
15.07.2011 17:28 21,5 C 27,0 C 24,3 C 40 % 1018 hPa 0,0 l/m 4,7 m/s (3 Bft) NW45 315 5 min 61,2 klux 7,3 C 18,7 C
15.07.2011 17:33 21,8 C 27,4 C 25,5 C 40 % 1018 hPa 0,0 l/m 5,3 m/s (3 Bft) NW67.5 305 5 min 62,1 klux 7,6 C 18,7 C
15.07.2011 17:38 22,0 C 27,8 C 26,7 C 38 % 1018 hPa 0,0 l/m 4,5 m/s (3 Bft) W-NW45 285 5 min 61,1 klux 7,0 C 19,4 C
15.07.2011 17:42 22,0 C 27,9 C 25,4 C 39 % 1018 hPa 0,0 l/m 4,5 m/s (3 Bft) NW22.5 320 4 min 58,7 klux 7,4 C 19,5 C
15.07.2011 17:47 22,2 C 28,2 C 24,6 C 38 % 1018 hPa 0,0 l/m 7,4 m/s (4 Bft) NW45 320 5 min 54,4 klux 7,2 C 18,2 C
15.07.2011 17:52 22,4 C 28,0 C 25,8 C 38 % 1018 hPa 0,0 l/m 6,1 m/s (4 Bft) NW45 315 5 min 61,2 klux 7,4 C 19,0 C
15.07.2011 17:57 22,3 C 28,1 C 27,4 C 38 % 1018 hPa 0,0 l/m 6,1 m/s (4 Bft) NW45 315 5 min 58,0 klux 7,3 C 18,9 C
15.07.2011 18:03 22,1 C 28,1 C 26,1 C 38 % 1017 hPa 0,0 l/m 6,9 m/s (4 Bft) NW22.5 315 6 min 55,2 klux 7,1 C 18,2 C
15.07.2011 18:08 22,0 C 27,8 C 24,6 C 37 % 1017 hPa 0,0 l/m 5,4 m/s (3 Bft) NW45 310 5 min 39,6 klux 6,6 C 18,9 C
15.07.2011 18:13 21,9 C 27,5 C 26,1 C 38 % 1017 hPa 0,0 l/m 4,5 m/s (3 Bft) NW22.5 305 5 min 47,9 klux 6,9 C 19,3 C
15.07.2011 18:18 21,8 C 27,1 C 24,8 C 37 % 1017 hPa 0,0 l/m 7,5 m/s (4 Bft) NW45 305 5 min 45,2 klux 6,5 C 17,6 C
15.07.2011 18:23 21,9 C 26,8 C 24,7 C 39 % 1018 hPa 0,0 l/m 6,9 m/s (4 Bft) NW22.5 320 5 min 50,4 klux 7,3 C 18,0 C
15.07.2011 18:28 22,4 C 27,5 C 24,7 C 38 % 1018 hPa 0,0 l/m 5,6 m/s (4 Bft) NW22.5 320 5 min 56,7 klux 7,4 C 19,3 C
15.07.2011 18:32 22,4 C 27,8 C 24,6 C 38 % 1018 hPa 0,0 l/m 5,1 m/s (3 Bft) W-NW45 300 4 min 55,0 klux 7,4 C 19,5 C
15.07.2011 18:37 22,5 C 27,7 C 23,6 C 38 % 1018 hPa 0,0 l/m 2,9 m/s (2 Bft) W45 280 5 min 55,0 klux 7,5 C 21,3 C
15.07.2011 18:42 22,4 C 27,9 C 23,8 C 35 % 1018 hPa 0,0 l/m 3,3 m/s (2 Bft) NW22.5 315 5 min 47,9 klux 6,2 C 20,8 C
15.07.2011 18:48 22,4 C 27,9 C 23,8 C 34 % 1018 hPa 0,0 l/m 6,5 m/s (4 Bft) NW22.5 320 6 min 51,7 klux 5,8 C 18,8 C
15.07.2011 18:53 22,2 C 27,8 C 23,5 C 33 % 1018 hPa 0,0 l/m 5,5 m/s (3 Bft) NW67.5 305 5 min 48,8 klux 5,2 C 19,1 C
15.07.2011 18:58 22,5 C 28,2 C 23,4 C 34 % 1018 hPa 0,0 l/m 2,2 m/s (2 Bft) W-SW45 250 5 min 47,1 klux 5,9 C 22,0 C
15.07.2011 19:03 22,8 C 28,8 C 23,0 C 33 % 1018 hPa 0,0 l/m 4,6 m/s (3 Bft) W-NW45 295 5 min 47,5 klux 5,7 C 20,4 C
15.07.2011 19:08 23,8 C 28,6 C 23,0 C 31 % 1018 hPa 0,0 l/m 5,9 m/s (4 Bft) NW22.5 305 5 min 46,8 klux 5,6 C 21,0 C
15.07.2011 19:13 24,8 C 28,3 C 22,7 C 30 % 1017 hPa 0,0 l/m 5,6 m/s (4 Bft) NW22.5 310 5 min 44,2 klux 6,0 C 22,4 C
15.07.2011 19:17 24,9 C 28,4 C 22,4 C 27 % 1017 hPa 0,0 l/m 6,9 m/s (4 Bft) W-NW45 295 4 min 43,0 klux 4,6 C 22,0 C
15.07.2011 19:22 25,0 C 28,3 C 22,3 C 28 % 1017 hPa 0,0 l/m 5,6 m/s (4 Bft) NW45 310 5 min 42,5 klux 5,2 C 22,7 C
15.07.2011 19:27 25,0 C 28,2 C 22,2 C 28 % 1017 hPa 0,0 l/m 5,4 m/s (3 Bft) W-NW45 295 5 min 40,3 klux 5,2 C 22,7 C
15.07.2011 19:32 25,7 C 28,0 C 22,3 C 28 % 1017 hPa 0,0 l/m 4,9 m/s (3 Bft) W-NW45 300 5 min 38,4 klux 5,8 C 23,8 C
15.07.2011 19:38 26,0 C 27,8 C 21,9 C 29 % 1017 hPa 0,0 l/m 4,3 m/s (3 Bft) W-NW45 285 6 min 36,0 klux 6,6 C 24,5 C
15.07.2011 19:43 26,2 C 27,9 C 21,9 C 26 % 1017 hPa 0,0 l/m 4,0 m/s (3 Bft) W-NW45 290 5 min 33,9 klux 5,2 C 24,8 C
15.07.2011 19:48 26,2 C 27,9 C 21,7 C 28 % 1017 hPa 0,0 l/m 2,4 m/s (2 Bft) W-NW45 285 5 min 31,7 klux 6,2 C 25,7 C
15.07.2011 19:53 26,2 C 27,9 C 21,6 C 25 % 1017 hPa 0,0 l/m 1,7 m/s (2 Bft) W-NW45 285 5 min 30,4 klux 4,6 C 26,2 C
15.07.2011 19:58 25,9 C 27,8 C 21,4 C 25 % 1017 hPa 0,0 l/m 3,4 m/s (2 Bft) W-NW45 285 5 min 29,0 klux 4,4 C 24,8 C
15.07.2011 20:03 24,9 C 27,0 C 21,1 C 27 % 1017 hPa 0,0 l/m 4,8 m/s (3 Bft) NW22.5 310 5 min 28,0 klux 4,6 C 22,9 C
15.07.2011 20:07 24,9 C 26,4 C 21,0 C 27 % 1017 hPa 0,0 l/m 3,9 m/s (3 Bft) NW22.5 305 4 min 26,3 klux 4,6 C 23,3 C
15.07.2011 20:12 25,0 C 26,1 C 20,8 C 25 % 1018 hPa 0,0 l/m 1,8 m/s (2 Bft) W45 270 5 min 22,2 klux 3,6 C 25,0 C
15.07.2011 20:17 24,8 C 25,6 C 20,8 C 24 % 1018 hPa 0,0 l/m 2,6 m/s (2 Bft) W45 280 5 min 20,7 klux 2,9 C 24,1 C
15.07.2011 20:22 24,8 C 25,2 C 20,5 C 24 % 1018 hPa 0,0 l/m 1,4 m/s (1 Bft) W22.5 265 5 min 19,1 klux 2,9 C 24,8 C
15.07.2011 20:28 24,9 C 24,9 C 20,2 C 25 % 1018 hPa 0,0 l/m 2,1 m/s (2 Bft) W45 265 6 min 17,5 klux 3,5 C 24,6 C
15.07.2011 20:33 24,9 C 24,3 C 20,1 C 25 % 1018 hPa 0,0 l/m 2,5 m/s (2 Bft) W-NW22.5 295 5 min 15,5 klux 3,5 C 24,3 C
15.07.2011 20:38 24,2 C 23,6 C 19,8 C 25 % 1018 hPa 0,0 l/m 1,8 m/s (2 Bft) W22.5 275 5 min 14,1 klux 2,9 C 24,2 C
15.07.2011 20:43 23,8 C 23,0 C 19,6 C 26 % 1018 hPa 0,0 l/m 2,0 m/s (2 Bft) W-NW45 285 5 min 11,5 klux 3,1 C 23,6 C
15.07.2011 20:48 23,4 C 22,5 C 19,4 C 28 % 1018 hPa 0,0 l/m 1,8 m/s (2 Bft) W22.5 270 5 min 10,8 klux 3,8 C 23,4 C
15.07.2011 20:53 23,0 C 21,9 C 19,4 C 28 % 1018 hPa 0,0 l/m 2,8 m/s (2 Bft) W22.5 280 5 min 9,9 klux 3,5 C 22,0 C
15.07.2011 20:58 20,9 C 21,4 C 19,2 C 31 % 1018 hPa 0,0 l/m 3,1 m/s (2 Bft) NW22.5 305 0 min 5,00 klux 3,1 C 19,3 C
15.07.2011 21:03 19,8 C 21,2 C 18,3 C 33 % 1018 hPa 0,0 l/m 1,1 m/s (1 Bft) W-NW22.5 285 0 min 3,19 klux 3,1 C 19,8 C
15.07.2011 21:08 19,0 C 20,7 C 18,1 C 35 % 1018 hPa 0,0 l/m 0,0 m/s (0 Bft) W-NW22.5 285 0 min 2,70 klux 3,2 C 19,0 C
15.07.2011 21:13 18,6 C 20,5 C 17,8 C 36 % 1018 hPa 0,0 l/m 0,0 m/s (0 Bft) W-NW22.5 285 0 min 2,24 klux 3,2 C 18,6 C
15.07.2011 21:18 18,0 C 20,0 C 17,8 C 38 % 1018 hPa 0,0 l/m 0,0 m/s (0 Bft) W-NW 295 5 min 1,79 klux 3,5 C 18,0 C
15.07.2011 21:23 17,4 C 19,5 C 17,5 C 39 % 1018 hPa 0,0 l/m 0,0 m/s (0 Bft) W-NW22.5 295 0 min 1,37 klux 3,3 C 17,4 C
15.07.2011 21:28 17,0 C 19,1 C 17,4 C 39 % 1018 hPa 0,0 l/m 0,0 m/s (0 Bft) W-NW 295 0 min 1,00 klux 2,9 C 17,0 C
15.07.2011 21:33 16,8 C 18,7 C 17,5 C 40 % 1018 hPa 0,0 l/m 0,0 m/s (0 Bft) W-NW 290 0 min 691 lux 3,1 C 16,8 C
15.07.2011 21:38 16,4 C 18,5 C 17,3 C 42 % 1018 hPa 0,0 l/m 0,0 m/s (0 Bft) W-NW 290 0 min 464 lux 3,5 C 16,4 C
15.07.2011 21:43 16,1 C 18,1 C 17,1 C 43 % 1018 hPa 0,0 l/m 0,0 m/s (0 Bft) W-NW 290 0 min 464 lux 3,5 C 16,1 C
15.07.2011 21:48 16,0 C 17,8 C 16,6 C 43 % 1018 hPa 0,0 l/m 0,0 m/s (0 Bft) W-NW 290 0 min 229 lux 3,4 C 16,0 C
15.07.2011 21:53 15,5 C 17,6 C 16,4 C 44 % 1018 hPa 0,0 l/m 0,0 m/s (0 Bft) W-NW 290 0 min 126 lux 3,3 C 15,5 C
15.07.2011 21:58 15,1 C 17,2 C 16,0 C 45 % 1018 hPa 0,0 l/m 0,0 m/s (0 Bft) W-NW 290 0 min 68 lux 3,3 C 15,1 C
15.07.2011 22:03 15,0 C 16,8 C 16,3 C 47 % 1018 hPa 0,0 l/m 0,0 m/s (0 Bft) W-NW 290 0 min 36 lux 3,8 C 15,0 C
15.07.2011 22:08 14,6 C 16,5 C 15,8 C 48 % 1018 hPa 0,0 l/m 0,0 m/s (0 Bft) W-NW 290 0 min 17 lux 3,7 C 14,6 C
15.07.2011 22:13 14,2 C 16,4 C 15,3 C 48 % 1018 hPa 0,0 l/m 0,0 m/s (0 Bft) W-NW 290 0 min 4 lux 3,4 C 14,2 C
15.07.2011 22:18 14,0 C 16,0 C 15,6 C 51 % 1018 hPa 0,0 l/m 0,0 m/s (0 Bft) W-NW 290 0 min 3 lux 4,0 C 14,0 C
15.07.2011 22:23 13,9 C 15,6 C 15,4 C 50 % 1018 hPa 0,0 l/m 0,0 m/s (0 Bft) W-NW 290 0 min 0 lux 3,7 C 13,9 C
15.07.2011 22:28 13,5 C 15,5 C 15,4 C 51 % 1018 hPa 0,0 l/m 0,0 m/s (0 Bft) W-NW 290 0 min 0 lux 3,6 C 13,5 C
15.07.2011 22:33 13,3 C 15,2 C 14,9 C 52 % 1018 hPa 0,0 l/m 0,0 m/s (0 Bft) W-NW 290 0 min 0 lux 3,7 C 13,3 C
15.07.2011 22:38 13,2 C 14,9 C 14,9 C 53 % 1018 hPa 0,0 l/m 0,0 m/s (0 Bft) W-NW 290 0 min 0 lux 3,8 C 13,2 C
15.07.2011 22:43 13,0 C 14,8 C 15,0 C 54 % 1018 hPa 0,0 l/m 0,0 m/s (0 Bft) W-NW 290 0 min 0 lux 3,9 C 13,0 C
15.07.2011 22:48 12,8 C 14,6 C 14,7 C 56 % 1018 hPa 0,0 l/m 0,0 m/s (0 Bft) W-NW 290 0 min 0 lux 4,2 C 12,8 C
15.07.2011 22:53 12,8 C 14,4 C 14,7 C 56 % 1018 hPa 0,0 l/m 0,0 m/s (0 Bft) W-NW 290 0 min 0 lux 4,2 C 12,8 C
15.07.2011 22:58 12,6 C 14,1 C 14,6 C 56 % 1018 hPa 0,0 l/m 0,0 m/s (0 Bft) W-NW 290 0 min 0 lux 4,1 C 12,6 C
15.07.2011 23:03 12,5 C 14,0 C 14,5 C 57 % 1018 hPa 0,0 l/m 0,0 m/s (0 Bft) W-NW 290 0 min 0 lux 4,2 C 12,5 C
15.07.2011 23:08 12,3 C 13,8 C 14,8 C 57 % 1018 hPa 0,0 l/m 0,0 m/s (0 Bft) W-NW 290 0 min 0 lux 4,0 C 12,3 C
15.07.2011 23:13 12,0 C 13,6 C 14,1 C 59 % 1018 hPa 0,0 l/m 0,0 m/s (0 Bft) W-NW 290 0 min 0 lux 4,2 C 12,0 C
15.07.2011 23:18 11,8 C 13,5 C 13,7 C 59 % 1018 hPa 0,0 l/m 0,0 m/s (0 Bft) W-NW 290 0 min 0 lux 4,1 C 11,8 C
15.07.2011 23:23 11,6 C 13,4 C 14,1 C 60 % 1018 hPa 0,0 l/m 0,0 m/s (0 Bft) W-NW 290 0 min 0 lux 4,1 C 11,6 C
15.07.2011 23:28 11,5 C 13,2 C 13,7 C 60 % 1018 hPa 0,0 l/m 0,0 m/s (0 Bft) W-NW 290 0 min 0 lux 4,0 C 11,5 C
15.07.2011 23:33 11,4 C 13,1 C 13,6 C 61 % 1018 hPa 0,0 l/m 0,0 m/s (0 Bft) W-NW 290 0 min 0 lux 4,2 C 11,4 C
15.07.2011 23:38 11,2 C 12,9 C 13,3 C 61 % 1018 hPa 0,0 l/m 0,0 m/s (0 Bft) W-NW 290 0 min 0 lux 4,0 C 11,2 C
15.07.2011 23:43 11,2 C 12,7 C 13,1 C 61 % 1018 hPa 0,0 l/m 0,0 m/s (0 Bft) W-NW 290 0 min 0 lux 4,0 C 11,2 C
15.07.2011 23:48 11,1 C 12,6 C 13,0 C 62 % 1018 hPa 0,0 l/m 0,0 m/s (0 Bft) W-NW 290 0 min 0 lux 4,1 C 11,1 C
15.07.2011 23:53 10,8 C 12,5 C 13,2 C 63 % 1018 hPa 0,0 l/m 0,0 m/s (0 Bft) W-NW 290 0 min 0 lux 4,0 C 10,8 C
15.07.2011 23:58 10,8 C 12,5 C 12,9 C 63 % 1018 hPa 0,0 l/m 0,0 m/s (0 Bft) W-NW 290 0 min 0 lux 4,0 C 10,8 C
_ Min-Zeit 23:53 03:03 03:17 20:17 00:03 - 21:08 - - - - 20:17 02:13
Minimum _ 10,8 C 12,4 C 12,6 C 24 % 1016 hPa - 0,0 m/s (0 Bft) - - - - 2,9 C 3,3 C
_ Max-Zeit 19:43 19:03 17:57 02:53 11:13 00:03 02:13 - - 16:13 13:48 13:38 19:53
Maximum _ 26,2 C 28,8 C 27,4 C 78 % 1019 hPa 0,0 l/m 8,9 m/s
NW (5 Bft)
- - 6 min 127 klux 10,9 C 26,2 C
Durchschnitt _ 16,3 C 17,8 C 17,3 C 59 % 1017 hPa #0,0 l/m 4,3 m/s (3 Bft) NW - #5:56 h 24,8 klux 7,5 C 12,8 C